View from above orbital plane
|
View from above satellite
|
Ground track
|
The orbit data is extracted from the following two-line orbital elements,
1 22487U 93008A 19345.84190756 +.00000036 +00000-0 +21335-4 0 9992
2 22487 082.9429 147.3017 0036905 283.8715 185.7569 13.75793116342833
Epoch (UTC): | 11 December 2019 20:12:20 |
Eccentricity: | 0.0036905 |
inclination: | 82.9429° |
perigee height: | 951 km |
apogee height: | 1006 km |
right ascension of ascending node: | 147.3017° |
argument of perigee: | 283.8715° |
revolutions per day: | 13.75793116 |
mean anomaly at epoch: | 185.7569° |
orbit number at epoch: | 34283 |
The dashed part of the orbit path shows where the satellite is in the earth's shadow,
|
|